Date String (YYYY-MM-DD hh:mm:ss) UTC,Instrument flags,Ambient pressure (hPa),Sample flow (lpm),Bypass flow (lpm),Sample temperature (°C),Ambient temperature (°C),ASC tube jacket temperature (°C),LED temperature (°C),Box temperature (°C),Sample RH (%),Span deviation,Mass concentration (μg/m³),Mass concentration (μg/m³),Mass concentration (μg/m³)
DateTimeUTC,F1_M11,P_M11,Q1_M11,Q2_M11,T1_M11,T2_M11,T3_M11,T4_M11,T5_M11,U1_M11,ZSPAN_M11,X0_M11,X2_M11,X1_M11
2021-11-11 22:00:00,,0824.2,4.99,0.00,26.1,25.0,00.0,35.1,27.9,11.9,0000.0,0004.09,0001.22,0000.65
2021-11-11 22:01:00,,0824.3,5.00,0.00,26.1,25.0,00.0,35.1,27.9,12.1,0000.0,0004.43,0001.22,0000.65
2021-11-11 22:02:00,,0824.4,5.01,0.00,26.1,25.1,00.0,35.1,27.9,12.1,0000.0,0005.03,0001.28,0000.66
2021-11-11 22:03:00,,0824.3,5.00,0.00,26.2,25.1,00.0,35.1,27.9,12.1,0000.0,0005.12,0001.28,0000.66
2021-11-11 22:04:00,,0824.4,5.00,0.00,26.2,25.1,00.0,35.1,27.9,12.0,0000.0,0004.18,0001.22,0000.64
2021-11-11 22:05:00,,0824.3,5.00,0.00,26.2,25.1,00.0,35.1,27.9,12.3,0000.0,0003.64,0001.23,0000.65
2021-11-11 22:06:00,,0824.3,4.99,0.00,26.2,25.1,00.0,35.1,27.9,12.5,0000.0,0003.81,0001.26,0000.66
2021-11-11 22:07:00,,0824.2,4.99,0.00,26.2,25.2,00.0,35.1,27.9,12.6,0000.0,0003.80,0001.27,0000.68
2021-11-11 22:08:00,,0824.2,5.01,0.00,26.1,25.2,00.0,35.1,27.9,12.7,0000.0,0003.74,0001.26,0000.69
2021-11-11 22:09:00,,0824.3,5.00,0.00,26.1,25.2,00.0,35.1,27.9,12.7,0000.0,0003.86,0001.28,0000.70
2021-11-11 22:10:00,,0824.3,5.00,0.00,26.1,25.1,00.0,35.1,27.9,12.8,0000.0,0004.16,0001.37,0000.72
2021-11-11 22:11:00,,0824.3,5.00,0.00,26.1,25.1,00.0,35.1,27.9,13.0,0000.0,0004.50,0001.44,0000.75
2021-11-11 22:12:00,,0824.3,5.00,0.00,26.1,25.2,00.0,35.1,28.0,13.1,0000.0,0004.77,0001.44,0000.75
2021-11-11 22:13:00,,0824.4,5.00,0.00,26.1,25.2,00.0,35.1,28.0,13.0,0000.0,0004.86,0001.37,0000.74
2021-11-11 22:14:00,,0824.4,5.00,0.00,26.1,25.2,00.0,35.1,27.9,13.1,0000.0,0004.84,0001.35,0000.76
2021-11-11 22:15:00,,0824.4,5.01,0.00,26.1,25.2,00.0,35.1,27.9,13.2,0000.0,0004.95,0001.43,0000.78
2021-11-11 22:16:00,,0824.4,5.00,0.00,26.1,25.2,00.0,35.1,27.9,13.3,0000.0,0005.36,0001.45,0000.79
2021-11-11 22:17:00,,0824.4,5.00,0.00,26.1,25.2,00.0,35.1,27.8,13.4,0000.0,0005.10,0001.42,0000.78
2021-11-11 22:18:00,,0824.8,5.01,0.00,26.1,25.2,00.0,35.1,27.9,13.5,0000.0,0005.05,0001.40,0000.76
2021-11-11 22:19:00,,0824.7,4.99,0.00,26.1,25.2,00.0,35.1,27.9,13.5,0000.0,0004.95,0001.37,0000.74
2021-11-11 22:20:00,,0824.4,4.99,0.00,26.1,25.2,00.0,35.1,27.9,13.3,0000.0,0004.84,0001.35,0000.73
2021-11-11 22:21:00,,0824.5,5.01,0.00,26.1,25.2,00.0,35.1,27.9,13.3,0000.0,0005.54,0001.28,0000.72
2021-11-11 22:22:00,,0824.4,5.01,0.00,26.1,25.2,00.0,35.1,27.9,13.2,0000.0,0006.90,0001.23,0000.71
2021-11-11 22:23:00,,0824.4,5.00,0.00,26.1,25.1,00.0,35.1,27.9,13.2,0000.0,0006.26,0001.23,0000.70
2021-11-11 22:24:00,,0824.7,5.00,0.00,26.2,25.1,00.0,35.1,27.9,13.3,0000.0,0005.60,0001.25,0000.69
2021-11-11 22:25:00,,0824.6,5.00,0.00,26.2,25.1,00.0,35.1,28.0,13.4,0000.0,0005.51,0001.26,0000.68
2021-11-11 22:26:00,,0824.4,5.00,0.00,26.2,25.2,00.0,35.1,28.0,13.3,0000.0,0006.17,0001.27,0000.67
2021-11-11 22:27:00,,0824.8,5.00,0.00,26.2,25.2,00.0,35.1,27.9,13.3,0000.0,0005.82,0001.24,0000.65
2021-11-11 22:28:00,,0824.6,5.00,0.00,26.2,25.2,00.0,35.1,27.9,13.3,0000.0,0007.06,0001.24,0000.64
2021-11-11 22:29:00,,0824.4,5.01,0.00,26.2,25.2,00.0,35.1,28.0,13.3,0000.0,0007.47,0001.22,0000.62
2021-11-11 22:30:00,,0824.4,4.99,0.00,26.2,25.2,00.0,35.2,28.0,13.4,0000.0,0007.56,0001.25,0000.61
2021-11-11 22:31:00,,0824.4,4.99,0.00,26.2,25.2,00.0,35.2,28.0,13.4,0000.0,0007.53,0001.24,0000.60
2021-11-11 22:32:00,,0824.4,5.00,0.00,26.2,25.2,00.0,35.2,28.0,13.5,0000.0,0006.75,0001.23,0000.59
2021-11-11 22:33:00,,0824.5,5.00,0.00,26.2,25.1,00.0,35.2,27.9,13.4,0000.0,0005.67,0001.26,0000.59
2021-11-11 22:34:00,,0824.4,5.01,0.00,26.2,25.1,00.0,35.2,28.0,13.4,0000.0,0006.10,0001.26,0000.58
2021-11-11 22:35:00,,0824.4,4.99,0.00,26.2,25.1,00.0,35.2,27.9,13.5,0000.0,0006.23,0001.27,0000.59
2021-11-11 22:36:00,,0824.4,5.01,0.00,26.2,25.1,00.0,35.2,28.0,13.5,0000.0,0006.09,0001.23,0000.58
2021-11-11 22:37:00,,0824.3,5.00,0.00,26.2,25.1,00.0,35.2,27.9,13.4,0000.0,0005.48,0001.18,0000.59
2021-11-11 22:38:00,,0824.4,5.00,0.00,26.2,25.2,00.0,35.2,27.9,13.5,0000.0,0005.31,0001.17,0000.59
2021-11-11 22:39:00,,0824.3,5.01,0.00,26.2,25.2,00.0,35.2,28.0,13.5,0000.0,0004.13,0001.11,0000.58
2021-11-11 22:40:00,,0824.3,5.00,0.00,26.2,25.3,00.0,35.2,28.0,13.4,0000.0,0003.22,0001.07,0000.58
2021-11-11 22:41:00,,0824.2,4.99,0.00,26.3,25.3,00.0,35.2,28.1,13.4,0000.0,0003.05,0001.01,0000.57
2021-11-11 22:42:00,,0824.3,5.01,0.00,26.3,25.4,00.0,35.2,28.1,13.4,0000.0,0002.98,0000.98,0000.56
2021-11-11 22:43:00,,0824.2,5.00,0.00,26.3,25.4,00.0,35.2,28.1,13.4,0000.0,0002.96,0000.97,0000.55
2021-11-11 22:44:00,,0824.3,4.99,0.00,26.3,25.4,00.0,35.2,28.1,13.3,0000.0,0002.75,0000.96,0000.55
2021-11-11 22:45:00,,0824.2,5.01,0.00,26.3,25.4,00.0,35.2,28.1,13.3,0000.0,0002.18,0000.92,0000.55
2021-11-11 22:46:00,,0824.1,5.00,0.00,26.3,25.5,00.0,35.3,28.1,13.3,0000.0,0002.11,0000.92,0000.57
2021-11-11 22:47:00,,0824.1,4.99,0.00,26.3,25.5,00.0,35.3,28.2,13.2,0000.0,0002.33,0000.95,0000.57
2021-11-11 22:48:00,,0824.1,5.00,0.00,26.4,25.5,00.0,35.3,28.1,13.2,0000.0,0002.52,0000.99,0000.55
2021-11-11 22:49:00,,0824.1,5.01,0.00,26.4,25.5,00.0,35.3,28.2,13.2,0000.0,0002.95,0001.01,0000.54
2021-11-11 22:50:00,,0824.1,4.99,0.00,26.4,25.4,00.0,35.3,28.2,13.2,0000.0,0003.39,0001.03,0000.54
2021-11-11 22:51:00,,0824.1,5.00,0.00,26.4,25.4,00.0,35.3,28.2,13.2,0000.0,0003.49,0001.05,0000.54
2021-11-11 22:52:00,,0824.1,5.01,0.00,26.4,25.5,00.0,35.3,28.3,13.2,0000.0,0003.53,0001.07,0000.55
2021-11-11 22:53:00,,0824.1,4.99,0.00,26.4,25.6,00.0,35.3,28.3,13.2,0000.0,0003.91,0001.06,0000.55
2021-11-11 22:54:00,,0824.1,5.01,0.00,26.4,25.6,00.0,35.4,28.3,13.1,0000.0,0004.50,0001.08,0000.55
2021-11-11 22:55:00,,0824.1,5.00,0.00,26.4,25.6,00.0,35.4,28.3,13.0,0000.0,0004.24,0001.06,0000.56
2021-11-11 22:56:00,,0824.1,5.00,0.00,26.4,25.6,00.0,35.4,28.3,13.0,0000.0,0004.28,0001.09,0000.55
2021-11-11 22:57:00,,0824.0,5.00,0.00,26.4,25.7,00.0,35.4,28.3,13.0,0000.0,0004.15,0001.05,0000.54
2021-11-11 22:58:00,,0824.0,4.99,0.00,26.5,25.7,00.0,35.4,28.3,12.9,0000.0,0004.01,0001.04,0000.53
2021-11-11 22:59:00,,0824.0,5.01,0.00,26.5,25.6,00.0,35.4,28.3,12.7,0000.0,0003.93,0001.00,0000.53
